Ambroz, Spain

8:40 AM CEST on May 23, 2017 (GMT +0200)
Ambroz

Weather History for 08221 - June, 2013

Change the Weather History Date:

Sunday, June 16, 2013

  Actual Average Record
Temperature  
Mean Temperature 76 °F -  
Max Temperature 95 °F 86 °F - ()
Min Temperature 57 °F 59 °F - ()
Cooling Degree Days 11    
Growing Degree Days 26 (Base 50)    
Moisture  
Dew Point 40 °F    
Average Humidity 28    
Maximum Humidity 59    
Minimum Humidity 5    
Precipitation  
Precipitation 0.00 in 0.02 in - ()
Sea Level Pressure  
Sea Level Pressure 29.92 in    
Wind  
Wind Speed 5 mph ()    
Max Wind Speed 20 mph    
Max Gust Speed 29 mph    
Visibility 18.8 miles    
Events      
T = Trace of Precipitation, MM = Missing Value Source: Averaged Metar Reports

Daily Weather History Graph

Daily Weather History Graph

Search for Another Location

Airport or City:

Trip Planner

Search our weather history database for the weather conditions in past years. The results will help you decide how hot, cold, wet, or windy it might be!

Date:

Astronomy

Jun. 16, 2013 Rise Set
Actual Time 6:43 AM CEST 9:46 PM CEST
Civil Twilight 6:10 AM CEST 10:19 PM CEST
Nautical Twilight 5:27 AM CEST 11:02 PM CEST
Astronomical Twilight 4:38 AM CEST 11:51 PM CEST
Moon 2:05 PM CEST (6/16) 1:43 AM CEST (6/16)
Length of Visible Light 16h 09m
Length of Day
15h 03m
Waxing Crescent, 47% of the Moon is Illuminated
Jun 16
Waxing Crescent
Jun 16
First Quarter
Jun 23
Full
Jun 30
Last Quarter
Jul 8
New

Hourly Weather History & Observations

Time (CEST) Temp. Dew Point Humidity Pressure Visibility Wind Dir Wind Speed Gust Speed Precip Events Conditions
12:00 AM 78.8 °F 39.2 °F 24% 29.98 in - Calm Calm - N/A   Clear
12:30 AM 77.0 °F 39.2 °F 26% 29.98 in - ESE 3.5 mph - N/A   Clear
1:00 AM 71.6 °F 39.2 °F 31% 29.98 in - Variable 2.3 mph - N/A   Clear
1:30 AM 69.8 °F 41.0 °F 35% 29.98 in - North 3.5 mph - N/A   Clear
2:00 AM 67 °F 37 °F 22% 29.93 in 19 mi NNW 4.6 mph - -  
2:00 AM 68.0 °F 39.2 °F 35% 29.98 in - NNW 4.6 mph - N/A   Clear
2:30 AM 68.0 °F 39.2 °F 35% 29.98 in - NNW 2.3 mph - N/A   Clear
3:00 AM 66.2 °F 41.0 °F 40% 29.98 in - North 2.3 mph - N/A   Clear
3:30 AM 64.4 °F 41.0 °F 42% 29.98 in - NE 4.6 mph - N/A   Clear
4:00 AM 64.4 °F 42.8 °F 45% 29.98 in - NW 3.5 mph - N/A   Clear
4:30 AM 62.6 °F 42.8 °F 48% 29.98 in - North 3.5 mph - N/A   Clear
5:00 AM 62.6 °F 42.8 °F 48% 29.98 in - North 3.5 mph - N/A   Clear
5:30 AM 60.8 °F 44.6 °F 55% 29.98 in - North 4.6 mph - N/A   Clear
6:00 AM 60.8 °F 44.6 °F 55% 29.98 in - NNW 4.6 mph - N/A   Clear
6:30 AM 60.8 °F 44.6 °F 55% 29.98 in - NNW 3.5 mph - N/A   Clear
7:00 AM 59.0 °F 44.6 °F 59% 29.98 in - North 4.6 mph - N/A   Clear
7:30 AM 60.8 °F 44.6 °F 55% 30.01 in - North 4.6 mph - N/A   Clear
8:00 AM 62 °F 43 °F 39% 29.96 in 19 mi North 5.8 mph - -  
8:00 AM 62.6 °F 44.6 °F 52% 30.01 in - North 5.8 mph - N/A   Clear
8:30 AM 64.4 °F 46.4 °F 52% 30.01 in - North 4.6 mph - N/A   Clear
9:00 AM 68.0 °F 44.6 °F 43% 30.01 in - North 3.5 mph - N/A   Clear
9:30 AM 73.4 °F 46.4 °F 38% 30.01 in - NE 1.2 mph - N/A   Clear
10:00 AM 75.2 °F 46.4 °F 36% 30.01 in - SE 1.2 mph - N/A   Clear
10:30 AM 77.0 °F 46.4 °F 34% 30.01 in - SSE 2.3 mph - N/A   Clear
11:00 AM 78.8 °F 46.4 °F 32% 29.98 in - WSW 2.3 mph - N/A   Clear
11:30 AM 80.6 °F 46.4 °F 30% 29.98 in - South 1.2 mph - N/A   Clear
12:00 PM 84.2 °F 46.4 °F 27% 29.98 in - South 5.8 mph 19.6 mph N/A   Clear
12:30 PM 86.0 °F 46.4 °F 25% 29.95 in - SE 3.5 mph - N/A   Clear
1:00 PM 87.8 °F 46.4 °F 24% 29.95 in - South 8.1 mph 20.7 mph N/A   Clear
1:30 PM 89.6 °F 42.8 °F 20% 29.95 in - SW 11.5 mph - N/A   Clear
2:00 PM 91 °F 39 °F 8% 29.78 in 18 mi SSW 11.5 mph - -  
2:00 PM 91.4 °F 41.0 °F 17% 29.92 in - SSW 11.5 mph 27.6 mph N/A   Clear
2:30 PM 91.4 °F 37.4 °F 15% 29.92 in - SSW 12.7 mph - N/A   Clear
3:00 PM 93.2 °F 39.2 °F 15% 29.92 in - SSW 8.1 mph - N/A   Clear
3:30 PM 93.2 °F 39.2 °F 15% 29.89 in - SSW 10.4 mph - N/A   Clear
4:00 PM 93.2 °F 39.2 °F 15% 29.89 in - South 9.2 mph - N/A   Clear
4:30 PM 93.2 °F 39.2 °F 15% 29.86 in - SW 8.1 mph 23.0 mph N/A   Clear
5:00 PM 95.0 °F 39.2 °F 14% 29.86 in - South 13.8 mph - N/A   Clear
5:30 PM 96.8 °F 39.2 °F 14% 29.83 in - SW 12.7 mph - N/A   Clear
6:00 PM 95.0 °F 39.2 °F 14% 29.83 in - SW 13.8 mph 25.3 mph N/A   Clear
6:30 PM 96.8 °F 37.4 °F 13% 29.83 in - SW 17.3 mph - N/A   Clear
7:00 PM 95.0 °F 37.4 °F 13% 29.83 in - SW 16.1 mph - N/A   Clear
7:30 PM 95.0 °F 37.4 °F 13% 29.83 in - SW 19.6 mph - N/A   Clear
8:00 PM 92 °F 30 °F 5% 29.67 in 19 mi SW 18.4 mph - -  
8:00 PM 93.2 °F 35.6 °F 13% 29.83 in - SW 17.3 mph - N/A   Clear
8:30 PM 93.2 °F 35.6 °F 13% 29.83 in - SW 15.0 mph - N/A   Clear
9:00 PM 91.4 °F 33.8 °F 13% 29.83 in - WSW 17.3 mph - N/A   Clear
9:30 PM 89.6 °F 32.0 °F 13% 29.83 in - WSW 15.0 mph 28.8 mph N/A   Clear
10:00 PM 87.8 °F 32.0 °F 14% 29.83 in - WSW 12.7 mph - N/A   Clear
10:30 PM 86.0 °F 30.2 °F 13% 29.83 in - WSW 10.4 mph - N/A   Clear
11:00 PM 86.0 °F 30.2 °F 13% 29.83 in - WSW 9.2 mph 20.7 mph N/A   Clear
11:30 PM 84.2 °F 32.0 °F 15% 29.83 in - WSW 10.4 mph - N/A   Clear